User: anonymous   Login
Location: ????????
(54.9045°N, 39.1041°E)
Time: 02:44:41
(UTC+00:00)
Language:

Meteor 1-27 Rocket - Orbit

View from above orbital plane
View from above orbital plane
View from above satellite
View from above satellite

Ground track
Ground track

The orbit data is extracted from the following two-line orbital elements,

1 09904U 77024B   24174.51657710  .00000121  00000-0  64372-4 0  9992
2 09904  81.2602 173.6896 0054875 311.7210  47.9272 14.07106778422861
Epoch (UTC): 22 June 2024 12:23:52
Eccentricity: 0.0054875
inclination: 81.2602°
perigee height: 829 km
apogee height: 909 km
right ascension of ascending node: 173.6896°
argument of perigee: 311.7210°
revolutions per day: 14.07106778
mean anomaly at epoch: 47.9272°
orbit number at epoch: 42286

The dashed part of the orbit path shows where the satellite is in the earth's shadow,  

DLR